Location: Bushey
(51.6333°N, 0.3667°W)
Time: 14:21:08
(UTC+00:00)

Cosmos 1602 - Pass Details

Date: 03 March 2021
Orbit: 512 x 534 km, 82.5° (Epoch: 13 April)

Event Time Altitude Azimuth Distance (km) Brightness Sun altitude
Rises 18:40:06 0° 185° (S) 2,654 7.4 -9.3°
Reaches altitude 10° 18:42:13 10° 184° (S) 1,773 6.4 -9.6°
Maximum altitude 18:46:06 77° 98° (E) 553 3.7 -10.2°
Drops below altitude 10° 18:50:03 10° 13° (NNE) 1,799 6.3 -10.8°
Sets 18:52:13 0° 12° (NNE) 2,696 7.3 -11.1°
